N9XP-9 Weather Reports


time (UTC)temp
C
wind
direction
speed
KPH
gust
KPH
rain 1hr
cm
rain 24hr
cm
rain mn
cm
humidity
%
barometer
mb
20260508024601 7 139 0.0 0.0 0.00 0.10 0.10 81 1011.4
20260508023100 7 139 0.0 0.0 0.00 0.10 0.10 79 1011.3
20260508021600 8 139 0.0 0.0 0.00 0.10 0.10 76 1011.2
20260508014559 9 141 0.0 0.0 0.00 0.10 0.10 72 1010.8
20260508013058 10 139 0.0 1.6 0.00 0.10 0.10 71 1010.6
20260508011557 10 140 0.0 0.0 0.00 0.10 0.10 70 1010.4
20260508010056 11 139 0.0 0.0 0.00 0.10 0.10 66 1010.4
20260508004609 12 141 0.0 0.0 0.00 0.10 0.10 63 1010.3
20260508003056 12 140 0.0 1.6 0.00 0.10 0.10 59 1010.3
20260508001555 13 228 0.0 3.2 0.00 0.10 0.10 56 1010.3
20260508000054 13 249 0.0 6.4 0.00 0.10 0.10 55 1010.2
20260507234553 13 302 0.0 9.7 0.00 0.10 0.10 55 1010.2
20260507233052 13 14 0.0 4.8 0.00 0.10 0.10 58 1010.3
20260507231555 13 212 0.0 6.4 0.00 0.10 0.10 59 1010.4
20260507230059 13 143 1.6 6.4 0.00 0.10 0.10 61 1010.6
20260507224550 13 156 0.0 3.2 0.03 0.10 0.10 70 1010.8
20260507223049 12 1 0.0 1.6 0.10 0.10 0.10 72 1011.0
20260507221549 12 12 0.0 4.8 0.10 0.10 0.10 65 1010.9
20260507220047 11 4 0.0 4.8 0.10 0.10 0.10 73 1011.0
20260507214647 10 4 1.6 16.1 0.10 0.10 0.10 75 1011.2
20260507213053 12 359 3.2 12.9 0.00 0.00 0.00 57 1011.2
20260507211555 15 342 3.2 9.7 0.00 0.00 0.00 46 1010.9
20260507210052 15 184 4.8 17.7 0.00 0.00 0.00 49 1010.5
20260507204542 14 105 8.0 19.3 0.00 0.00 0.00 50 1010.6
20260507203049 15 283 9.7 25.7 0.00 0.00 0.00 50 1010.8
20260507201544 15 205 11.3 24.1 0.00 0.00 0.00 52 1010.9
20260507200039 15 156 6.4 19.3 0.00 0.00 0.00 51 1011.2
20260507194600 15 229 9.7 41.8 0.00 0.00 0.00 54 1011.5
20260507193034 14 107 8.0 22.5 0.00 0.00 0.00 54 1012.0
20260507191532 14 159 3.2 24.1 0.00 0.00 0.00 54 1012.2
20260507190028 14 159 9.7 29.0 0.00 0.00 0.00 51 1012.4
20260507184527 13 332 9.7 22.5 0.00 0.00 0.00 51 1012.4
20260507183033 14 123 6.4 19.3 0.00 0.00 0.00 47 1012.7
20260507181524 14 132 4.8 17.7 0.00 0.00 0.00 44 1012.8
20260507180024 13 105 9.7 29.0 0.00 0.00 0.00 44 1012.8
20260507174528 13 216 4.8 22.5 0.00 0.00 0.00 41 1012.9
20260507173021 14 194 8.0 17.7 0.00 0.00 0.00 40 1013.3
20260507171515 13 79 4.8 20.9 0.00 0.00 0.00 42 1013.6
20260507170015 13 192 4.8 16.1 0.00 0.00 0.00 43 1014.1
20260507164511 13 143 4.8 20.9 0.00 0.00 0.00 41 1014.2
20260507163008 13 164 6.4 16.1 0.00 0.00 0.00 41 1014.3
20260507161505 12 180 3.2 12.9 0.00 0.00 0.00 45 1014.6
20260507160001 12 150 6.4 14.5 0.00 0.00 0.00 41 1015.0
20260507154606 12 106 4.8 14.5 0.00 0.00 0.00 43 1015.2
20260507153056 11 186 3.2 14.5 0.00 0.00 0.00 43 1015.2
20260507151553 11 183 3.2 14.5 0.00 0.00 0.00 45 1015.5
20260507150056 10 188 1.6 9.7 0.00 0.00 0.00 45 1015.8
20260507144546 10 178 3.2 9.7 0.00 0.00 0.00 46 1016.1
20260507143043 10 179 1.6 9.7 0.00 0.00 0.00 48 1016.3
20260507141542 8 215 1.6 8.0 0.00 0.00 0.00 52 1016.3
20260507140038 8 162 1.6 8.0 0.00 0.00 0.00 55 1016.4
20260507134534 7 153 0.0 6.4 0.00 0.00 0.00 56 1016.3
20260507133033 7 148 0.0 4.8 0.00 0.00 0.00 60 1016.6
20260507131525 6 202 0.0 6.4 0.00 0.00 0.00 63 1016.8
20260507130030 5 139 0.0 3.2 0.00 0.00 0.00 69 1016.8
20260507124520 4 229 0.0 3.2 0.00 0.00 0.00 74 1016.7
20260507123011 2 288 0.0 0.0 0.00 0.00 0.00 82 1016.7
20260507121509 1 290 0.0 0.0 0.00 0.00 0.00 86 1016.5
20260507120013 0 291 0.0 0.0 0.00 0.00 0.00 90 1016.5
20260507114507 0 290 0.0 0.0 0.00 0.00 0.00 94 1016.4
20260507113006 -1 290 0.0 0.0 0.00 0.00 0.00 95 1016.3
20260507111507 -1 292 0.0 0.0 0.00 0.00 0.00 95 1016.3
20260507110005 -1 289 0.0 0.0 0.00 0.00 0.00 94 1016.2
20260507104504 -1 290 0.0 0.0 0.00 0.00 0.00 94 1016.3
20260507103001 -1 289 0.0 0.0 0.00 0.00 0.00 93 1016.3
20260507101501 -1 288 0.0 0.0 0.00 0.00 0.00 93 1016.3
20260507100059 -1 284 0.0 0.0 0.00 0.00 0.00 93 1016.2
20260507094558 -1 287 0.0 0.0 0.00 0.00 0.00 92 1016.3
20260507093058 -1 287 0.0 0.0 0.00 0.00 0.00 91 1016.3
20260507091554 0 283 0.0 0.0 0.00 0.00 0.00 91 1016.4
20260507090053 0 286 0.0 0.0 0.00 0.00 0.00 91 1016.4
20260507084552 0 285 0.0 0.0 0.00 0.00 0.00 90 1016.3
20260507083051 -1 285 0.0 0.0 0.00 0.00 0.00 89 1016.3
20260507081549 0 285 0.0 0.0 0.00 0.00 0.00 88 1016.3
20260507080046 0 279 0.0 0.0 0.00 0.00 0.00 87 1016.3
20260507074546 0 278 0.0 0.0 0.00 0.00 0.00 87 1016.3
20260507073044 0 281 0.0 0.0 0.00 0.00 0.00 87 1016.3
20260507071601 0 278 0.0 0.0 0.00 0.00 0.00 87 1016.4
20260507070038 0 278 0.0 0.0 0.00 0.00 0.00 86 1016.6
20260507064537 0 270 0.0 0.0 0.00 0.00 0.00 85 1016.6
20260507063043 0 271 0.0 0.0 0.00 0.00 0.00 85 1016.6
20260507061535 0 272 0.0 0.0 0.00 0.00 0.00 85 1016.7
20260507060036 1 272 0.0 0.0 0.00 0.00 0.00 83 1016.8
20260507054530 1 265 0.0 0.0 0.00 0.00 0.00 81 1016.7
20260507053035 1 264 0.0 0.0 0.00 0.00 0.00 79 1016.6
20260507051531 2 263 0.0 0.0 0.00 0.00 0.00 77 1016.7
20260507050027 2 264 0.0 0.0 0.00 0.00 0.00 75 1016.6
20260507044522 2 264 0.0 0.0 0.00 0.00 0.00 75 1016.6
20260507043023 2 264 0.0 0.0 0.00 0.00 0.00 72 1016.6
20260507041520 2 262 0.0 0.0 0.00 0.00 0.00 70 1016.5
20260507040022 3 262 0.0 0.0 0.00 0.00 0.00 68 1016.6
20260507034531 3 262 0.0 0.0 0.00 0.00 0.00 66 1016.5
20260507033032 3 262 0.0 0.0 0.00 0.00 0.00 64 1016.6
20260507031518 4 262 0.0 1.6 0.00 0.00 0.00 62 1016.6
20260507030015 5 264 0.0 1.6 0.00 0.00 0.00 59 1016.5